Track HINODE (SOLAR B) now! 10-day predictions HINODE (SOLAR B) is classified as:
1 29479U 06041A 25025.50106438 .00001948 00000-0 35165-3 0 9998 2 29479 98.0806 43.7721 0019055 97.2248 263.1123 14.67478620980370